DLH5CH EGCC-EDDF

Flight info

Callsign DLH5CH
Flight time 1h 15m
Altitude 37000
Route SONEX L975 DESIG L603 DOLAS DCT NAVPI DCT NOLRU DCT DIXAT DIXAT1B
Aircraft A320/M-SDE3FGHIRWY/LB1

Departure

Time 2026-04-17 11:46
Airport Manchester Airport (EGCC)

Arrival

Time 2026-04-17 13:02
Airport Frankfurt Main Airport (EDDF)
Time Latitude Longitude Altitude Speed Heading
2026-04-17 11:02 53.36641 -2.28615 255 ft 0 kts 135°
2026-04-17 11:36 53.36648 -2.28628 255 ft 3 kts 135°
2026-04-17 11:36 53.36661 -2.28651 255 ft 3 kts 144°
2026-04-17 11:36 53.36672 -2.28658 255 ft 3 kts 212°
2026-04-17 11:36 53.36680 -2.28649 255 ft 0 kts 224°
2026-04-17 11:37 53.36679 -2.28651 255 ft 0 kts 224°
2026-04-17 11:40 53.36679 -2.28652 255 ft 1 kts 224°
2026-04-17 11:40 53.36653 -2.28698 255 ft 7 kts 233°
2026-04-17 11:40 53.36626 -2.28779 255 ft 8 kts 219°
2026-04-17 11:41 53.36572 -2.28750 255 ft 9 kts 134°
2026-04-17 11:41 53.36523 -2.28663 255 ft 11 kts 134°
2026-04-17 11:41 53.36465 -2.28564 255 ft 13 kts 134°
2026-04-17 11:41 53.36410 -2.28438 255 ft 14 kts 112°
2026-04-17 11:42 53.36352 -2.28296 255 ft 16 kts 135°
2026-04-17 11:42 53.36270 -2.28160 255 ft 17 kts 135°
2026-04-17 11:42 53.36183 -2.28013 255 ft 19 kts 135°
2026-04-17 11:42 53.36104 -2.27850 255 ft 19 kts 104°
2026-04-17 11:43 53.36072 -2.27652 255 ft 14 kts 116°
2026-04-17 11:43 53.35983 -2.27626 255 ft 15 kts 186°
2026-04-17 11:43 53.35878 -2.27633 255 ft 16 kts 185°
2026-04-17 11:43 53.35764 -2.27650 251 ft 19 kts 180°
2026-04-17 11:44 53.35639 -2.27546 246 ft 21 kts 144°
2026-04-17 11:44 53.35524 -2.27392 248 ft 20 kts 139°
2026-04-17 11:44 53.35416 -2.27247 246 ft 21 kts 142°
2026-04-17 11:44 53.35280 -2.27202 240 ft 22 kts 193°
2026-04-17 11:45 53.35140 -2.27252 230 ft 19 kts 189°
2026-04-17 11:45 53.35011 -2.27321 225 ft 21 kts 222°
2026-04-17 11:45 53.34853 -2.27639 222 ft 67 kts 231°
2026-04-17 11:45 53.34424 -2.28526 226 ft 127 kts 231°
2026-04-17 11:46 53.33780 -2.29865 375 ft 161 kts 230°
2026-04-17 11:46 53.33064 -2.31406 852 ft 176 kts 230°
2026-04-17 11:46 53.32302 -2.33029 1560 ft 184 kts 227°
2026-04-17 11:46 53.31616 -2.35017 2000 ft 214 kts 244°
2026-04-17 11:47 53.31379 -2.37645 2521 ft 244 kts 268°
2026-04-17 11:47 53.31869 -2.40440 3469 ft 260 kts 292°
2026-04-17 11:47 53.33090 -2.42748 4448 ft 276 kts 318°
2026-04-17 11:47 53.34900 -2.43960 4846 ft 290 kts 349°
2026-04-17 11:48 53.36934 -2.43910 4979 ft 294 kts 358°
2026-04-17 11:48 53.38974 -2.43729 5008 ft 293 kts 355°
2026-04-17 11:48 53.40939 -2.44252 5005 ft 283 kts 336°
2026-04-17 11:48 53.42820 -2.45210 5014 ft 283 kts 338°
2026-04-17 11:49 53.44803 -2.45573 5009 ft 293 kts
2026-04-17 11:49 53.46778 -2.44647 5011 ft 300 kts 26°
2026-04-17 11:49 53.48412 -2.42479 5020 ft 302 kts 51°
2026-04-17 11:49 53.49414 -2.39428 5013 ft 298 kts 77°
2026-04-17 11:50 53.49648 -2.36033 5024 ft 290 kts 101°
2026-04-17 11:50 53.49212 -2.32801 5037 ft 283 kts 112°
2026-04-17 11:50 53.49031 -2.29412 5634 ft 300 kts 88°
2026-04-17 11:50 53.49330 -2.25943 6666 ft 301 kts 86°
2026-04-17 11:51 53.49640 -2.22444 7554 ft 305 kts 86°
2026-04-17 11:51 53.49957 -2.18898 8460 ft 309 kts 86°
2026-04-17 11:51 53.50282 -2.15297 9352 ft 314 kts 86°
2026-04-17 11:51 53.50612 -2.11638 10206 ft 320 kts 86°
2026-04-17 11:52 53.50953 -2.07818 10561 ft 343 kts 86°
2026-04-17 11:52 53.51190 -2.05137 10718 ft 358 kts 85°
2026-04-17 11:52 53.51565 -2.00869 11007 ft 377 kts 85°
2026-04-17 11:52 53.51960 -1.96459 11611 ft 384 kts 85°
2026-04-17 11:53 53.52278 -1.91992 12262 ft 387 kts 91°
2026-04-17 11:53 53.52197 -1.87481 12952 ft 386 kts 102°
2026-04-17 11:53 53.51654 -1.83080 13658 ft 384 kts 111°
2026-04-17 11:53 53.50895 -1.78750 14298 ft 388 kts 112°
2026-04-17 11:54 53.50124 -1.74389 14928 ft 391 kts 112°
2026-04-17 11:54 53.49343 -1.69993 15565 ft 394 kts 113°
2026-04-17 11:54 53.48554 -1.65577 16172 ft 396 kts 113°
2026-04-17 11:54 53.47758 -1.61128 16813 ft 399 kts 113°
2026-04-17 11:55 53.46959 -1.56660 17426 ft 401 kts 114°
2026-04-17 11:55 53.46155 -1.52162 18020 ft 403 kts 113°
2026-04-17 11:55 53.45347 -1.47641 18581 ft 406 kts 113°
2026-04-17 11:55 53.44532 -1.43092 19072 ft 409 kts 113°
2026-04-17 11:56 53.43703 -1.38504 19563 ft 413 kts 114°
2026-04-17 11:56 53.42865 -1.33881 20018 ft 417 kts 114°
2026-04-17 11:56 53.42015 -1.29205 20462 ft 421 kts 114°
2026-04-17 11:56 53.41146 -1.24429 20914 ft 425 kts 114°
2026-04-17 11:57 53.40283 -1.19671 21375 ft 429 kts 114°
2026-04-17 11:57 53.39413 -1.14874 21825 ft 432 kts 114°
2026-04-17 11:57 53.38541 -1.10095 22252 ft 436 kts 114°
2026-04-17 11:57 53.37648 -1.05216 22666 ft 440 kts 114°
2026-04-17 11:58 53.36745 -1.00300 23046 ft 444 kts 114°
2026-04-17 11:58 53.35819 -0.95269 23453 ft 448 kts 114°
2026-04-17 11:58 53.34897 -0.90274 23818 ft 451 kts 114°
2026-04-17 11:58 53.33963 -0.85245 24166 ft 454 kts 114°
2026-04-17 11:59 53.33022 -0.80186 24509 ft 457 kts 114°
2026-04-17 11:59 53.32074 -0.75099 24852 ft 459 kts 114°
2026-04-17 11:59 53.31120 -0.69984 25192 ft 462 kts 114°
2026-04-17 11:59 53.30159 -0.64838 25524 ft 465 kts 114°
2026-04-17 12:00 53.29194 -0.59673 25862 ft 467 kts 114°
2026-04-17 12:00 53.28232 -0.54545 26190 ft 470 kts 114°
2026-04-17 12:00 53.27244 -0.49327 26511 ft 472 kts 114°
2026-04-17 12:00 53.26246 -0.44085 26823 ft 475 kts 114°
2026-04-17 12:01 53.25242 -0.38809 27133 ft 477 kts 114°
2026-04-17 12:01 53.24234 -0.33516 27399 ft 480 kts 114°
2026-04-17 12:01 53.23219 -0.28187 27723 ft 483 kts 114°
2026-04-17 12:01 53.22199 -0.22839 28012 ft 485 kts 114°
2026-04-17 12:02 53.21168 -0.17468 28306 ft 487 kts 114°
2026-04-17 12:02 53.20128 -0.12076 28592 ft 490 kts 114°
2026-04-17 12:02 53.19078 -0.06661 28884 ft 492 kts 115°
2026-04-17 12:02 53.18009 -0.01155 29176 ft 494 kts 114°
2026-04-17 12:03 53.16963 0.04223 29528 ft 494 kts 114°
2026-04-17 12:03 53.15903 0.09674 29959 ft 494 kts 114°
2026-04-17 12:03 53.14845 0.15113 30327 ft 494 kts 114°
2026-04-17 12:03 53.13780 0.20565 30654 ft 494 kts 114°
2026-04-17 12:04 53.12714 0.25999 30976 ft 494 kts 114°
2026-04-17 12:04 53.11644 0.31435 31300 ft 494 kts 114°
2026-04-17 12:04 53.10574 0.36853 31615 ft 493 kts 114°
2026-04-17 12:04 53.09499 0.42281 31944 ft 493 kts 114°
2026-04-17 12:05 53.08423 0.47696 32266 ft 493 kts 114°
2026-04-17 12:05 53.07346 0.53111 32560 ft 493 kts 114°
2026-04-17 12:05 53.06265 0.58525 32842 ft 494 kts 114°
2026-04-17 12:05 53.05178 0.63941 33160 ft 494 kts 114°
2026-04-17 12:06 53.04090 0.69357 33480 ft 494 kts 114°
2026-04-17 12:06 53.03002 0.74764 33799 ft 494 kts 114°
2026-04-17 12:06 53.01911 0.80176 34117 ft 493 kts 114°
2026-04-17 12:06 53.00819 0.85570 34418 ft 493 kts 114°
2026-04-17 12:07 52.99725 0.90949 34714 ft 491 kts 114°
2026-04-17 12:07 52.98630 0.96317 35036 ft 490 kts 114°
2026-04-17 12:07 52.97536 1.01650 35328 ft 488 kts 114°
2026-04-17 12:07 52.96401 1.06945 35614 ft 486 kts 115°
2026-04-17 12:08 52.95224 1.12199 35888 ft 485 kts 115°
2026-04-17 12:08 52.94021 1.17417 36162 ft 484 kts 116°
2026-04-17 12:08 52.92813 1.22605 36442 ft 482 kts 116°
2026-04-17 12:08 52.91610 1.27789 36714 ft 481 kts 115°
2026-04-17 12:09 52.90418 1.32965 36979 ft 480 kts 115°
2026-04-17 12:09 52.89233 1.38132 37127 ft 481 kts 115°
2026-04-17 12:09 52.86860 1.48507 37155 ft 482 kts 115°
2026-04-17 12:10 52.84478 1.58883 37153 ft 483 kts 115°
2026-04-17 12:10 52.82075 1.69270 37163 ft 484 kts 115°
2026-04-17 12:11 52.79654 1.79660 37158 ft 484 kts 115°
2026-04-17 12:12 52.76006 1.95213 37171 ft 484 kts 115°
2026-04-17 12:12 52.73570 2.05576 37158 ft 485 kts 114°
2026-04-17 12:13 52.71122 2.15946 37161 ft 485 kts 115°
2026-04-17 12:13 52.68657 2.26314 37171 ft 486 kts 115°
2026-04-17 12:14 52.66183 2.36662 37184 ft 486 kts 115°
2026-04-17 12:14 52.63695 2.47001 37189 ft 486 kts 115°
2026-04-17 12:15 52.61205 2.57350 37166 ft 487 kts 114°
2026-04-17 12:15 52.58703 2.67700 37183 ft 487 kts 115°
2026-04-17 12:16 52.56179 2.78039 37185 ft 488 kts 115°
2026-04-17 12:16 52.53576 2.88329 37196 ft 487 kts 117°
2026-04-17 12:17 52.50697 2.98378 37198 ft 486 kts 119°
2026-04-17 12:17 52.47692 3.08321 37166 ft 486 kts 119°
2026-04-17 12:18 52.44717 3.18280 37171 ft 487 kts 118°
2026-04-17 12:18 52.41792 3.28277 37179 ft 487 kts 118°
2026-04-17 12:19 52.38864 3.38268 37194 ft 487 kts 118°
2026-04-17 12:19 52.35914 3.48243 37193 ft 487 kts 118°
2026-04-17 12:20 52.32952 3.58204 37210 ft 487 kts 118°
2026-04-17 12:20 52.29978 3.68150 37214 ft 487 kts 118°
2026-04-17 12:21 52.27022 3.78011 37227 ft 487 kts 118°
2026-04-17 12:21 52.24040 3.87928 37229 ft 487 kts 118°
2026-04-17 12:22 52.21050 3.97835 37210 ft 487 kts 117°
2026-04-17 12:22 52.18040 4.07715 37227 ft 486 kts 118°
2026-04-17 12:23 52.15033 4.17572 37233 ft 486 kts 118°
2026-04-17 12:23 52.12028 4.27417 37233 ft 486 kts 118°
2026-04-17 12:24 52.09010 4.37251 37223 ft 486 kts 118°
2026-04-17 12:24 52.05981 4.47057 37222 ft 485 kts 118°
2026-04-17 12:25 52.02946 4.56836 37229 ft 485 kts 118°
2026-04-17 12:25 51.99902 4.66610 37228 ft 485 kts 118°
2026-04-17 12:26 51.96856 4.76373 37227 ft 485 kts 118°
2026-04-17 12:26 51.93805 4.86122 37210 ft 485 kts 118°
2026-04-17 12:27 51.90745 4.95841 37224 ft 484 kts 118°
2026-04-17 12:27 51.87674 5.05541 37229 ft 484 kts 118°
2026-04-17 12:28 51.84604 5.15218 37231 ft 483 kts 118°
2026-04-17 12:28 51.81527 5.24881 37230 ft 483 kts 118°
2026-04-17 12:29 51.78445 5.34537 37239 ft 484 kts 118°
2026-04-17 12:29 51.75347 5.44174 37230 ft 484 kts 118°
2026-04-17 12:30 51.72232 5.53809 37224 ft 484 kts 118°
2026-04-17 12:30 51.69118 5.63428 37216 ft 484 kts 118°
2026-04-17 12:31 51.65998 5.73056 37212 ft 485 kts 118°
2026-04-17 12:31 51.62873 5.82658 37223 ft 484 kts 118°
2026-04-17 12:32 51.59760 5.92180 37239 ft 484 kts 118°
2026-04-17 12:32 51.56608 6.01751 37232 ft 484 kts 118°
2026-04-17 12:33 51.53453 6.11306 37247 ft 484 kts 118°
2026-04-17 12:33 51.50284 6.20943 37240 ft 484 kts 115°
2026-04-17 12:34 51.48176 6.29259 37232 ft 484 kts 110°
2026-04-17 12:34 51.45321 6.40940 37227 ft 484 kts 111°
2026-04-17 12:35 51.42846 6.50974 37233 ft 484 kts 111°
2026-04-17 12:35 51.40767 6.59372 37247 ft 484 kts 111°
2026-04-17 12:37 51.30753 6.99392 36607 ft 484 kts 111°
2026-04-17 12:37 51.29470 7.04390 35676 ft 490 kts 114°
2026-04-17 12:38 51.27811 7.09174 34757 ft 495 kts 124°
2026-04-17 12:38 51.25696 7.13442 33757 ft 499 kts 134°
2026-04-17 12:38 51.23156 7.17148 32700 ft 490 kts 144°
2026-04-17 12:38 51.20347 7.20115 31675 ft 480 kts 154°
2026-04-17 12:39 51.17400 7.22499 30660 ft 473 kts 156°
2026-04-17 12:39 51.14432 7.24849 29397 ft 478 kts 156°
2026-04-17 12:39 51.11458 7.27195 28282 ft 476 kts 156°
2026-04-17 12:39 51.08509 7.29551 27116 ft 473 kts 155°
2026-04-17 12:40 51.05592 7.31944 26326 ft 468 kts 154°
2026-04-17 12:40 51.02724 7.34331 25705 ft 464 kts 154°
2026-04-17 12:40 50.99876 7.36709 25069 ft 461 kts 154°
2026-04-17 12:40 50.97047 7.39065 24429 ft 456 kts 154°
2026-04-17 12:41 50.94247 7.41380 23795 ft 452 kts 155°
2026-04-17 12:41 50.91473 7.43663 23108 ft 446 kts 155°
2026-04-17 12:41 50.88730 7.45910 22499 ft 442 kts 155°
2026-04-17 12:41 50.86019 7.48126 21891 ft 437 kts 155°
2026-04-17 12:42 50.83318 7.50330 21289 ft 434 kts 155°
2026-04-17 12:42 50.80648 7.52511 20692 ft 430 kts 155°
2026-04-17 12:42 50.78002 7.54670 20094 ft 426 kts 155°
2026-04-17 12:42 50.75377 7.56806 19502 ft 422 kts 155°
2026-04-17 12:43 50.72777 7.58915 18920 ft 419 kts 155°
2026-04-17 12:43 50.70194 7.61011 18311 ft 415 kts 155°
2026-04-17 12:43 50.67636 7.63083 17774 ft 411 kts 155°
2026-04-17 12:43 50.65101 7.65130 17335 ft 407 kts 155°
2026-04-17 12:44 50.62582 7.67161 17206 ft 406 kts 155°
2026-04-17 12:44 50.60070 7.69186 17230 ft 407 kts 155°
2026-04-17 12:44 50.57551 7.71218 17232 ft 407 kts 155°
2026-04-17 12:44 50.55030 7.73248 16925 ft 408 kts 155°
2026-04-17 12:45 50.52502 7.75280 15586 ft 409 kts 155°
2026-04-17 12:45 50.49971 7.77314 14341 ft 406 kts 155°
2026-04-17 12:45 50.47485 7.79312 13868 ft 396 kts 155°
2026-04-17 12:45 50.45066 7.81254 13494 ft 387 kts 154°
2026-04-17 12:46 50.42778 7.83417 13008 ft 384 kts 146°
2026-04-17 12:46 50.40649 7.86011 11986 ft 391 kts 143°
2026-04-17 12:46 50.38535 7.88648 11184 ft 380 kts 142°
2026-04-17 12:46 50.36551 7.91130 10975 ft 350 kts 142°
2026-04-17 12:47 50.34722 7.93413 10850 ft 323 kts 142°
2026-04-17 12:47 50.33028 7.95525 10631 ft 302 kts 142°
2026-04-17 12:47 50.31607 7.97837 10287 ft 294 kts 121°
2026-04-17 12:47 50.30968 8.00853 10217 ft 294 kts 97°
2026-04-17 12:48 50.30787 8.04049 10226 ft 296 kts 94°
2026-04-17 12:48 50.30655 8.07258 10226 ft 296 kts 94°
2026-04-17 12:48 50.30528 8.10469 10225 ft 295 kts 94°
2026-04-17 12:48 50.30402 8.13681 10220 ft 296 kts 94°
2026-04-17 12:49 50.30278 8.16894 10221 ft 296 kts 94°
2026-04-17 12:49 50.30152 8.20095 10054 ft 293 kts 94°
2026-04-17 12:49 50.30028 8.23267 9652 ft 292 kts 94°
2026-04-17 12:49 50.29911 8.26426 9282 ft 290 kts 94°
2026-04-17 12:50 50.29802 8.29566 8902 ft 288 kts 94°
2026-04-17 12:50 50.29695 8.32679 8536 ft 285 kts 94°
2026-04-17 12:50 50.29591 8.35774 8141 ft 284 kts 94°
2026-04-17 12:50 50.29494 8.38858 7765 ft 283 kts 93°
2026-04-17 12:51 50.29399 8.41915 7416 ft 281 kts 94°
2026-04-17 12:51 50.29305 8.44954 7032 ft 279 kts 94°
2026-04-17 12:51 50.29217 8.47977 6651 ft 277 kts 94°
2026-04-17 12:51 50.29133 8.50980 6259 ft 276 kts 94°
2026-04-17 12:52 50.29045 8.53970 5915 ft 274 kts 94°
2026-04-17 12:52 50.28957 8.56939 5523 ft 273 kts 93°
2026-04-17 12:52 50.28869 8.59900 5130 ft 272 kts 94°
2026-04-17 12:52 50.28782 8.62843 5001 ft 271 kts 94°
2026-04-17 12:53 50.28691 8.65793 5009 ft 272 kts 94°
2026-04-17 12:53 50.28600 8.68753 5005 ft 273 kts 94°
2026-04-17 12:53 50.28512 8.71718 5007 ft 273 kts 94°
2026-04-17 12:53 50.28393 8.74678 5003 ft 272 kts 101°
2026-04-17 12:54 50.27684 8.77373 5004 ft 269 kts 127°
2026-04-17 12:54 50.26509 8.79591 5000 ft 257 kts 133°
2026-04-17 12:54 50.25367 8.81579 5004 ft 240 kts 134°
2026-04-17 12:54 50.24256 8.83497 5003 ft 237 kts 134°
2026-04-17 12:55 50.23149 8.85405 5004 ft 237 kts 134°
2026-04-17 12:55 50.22043 8.87314 5005 ft 237 kts 133°
2026-04-17 12:55 50.20936 8.89217 5005 ft 237 kts 134°
2026-04-17 12:55 50.19817 8.91091 5003 ft 235 kts 140°
2026-04-17 12:56 50.18406 8.92324 5010 ft 234 kts 161°
2026-04-17 12:56 50.16851 8.93030 5001 ft 232 kts 177°
2026-04-17 12:56 50.15294 8.92581 5006 ft 230 kts 207°
2026-04-17 12:56 50.13998 8.91154 5006 ft 229 kts 226°
2026-04-17 12:57 50.13077 8.89150 5004 ft 225 kts 245°
2026-04-17 12:57 50.12535 8.86952 4980 ft 211 kts 249°
2026-04-17 12:57 50.12039 8.84835 4797 ft 206 kts 249°
2026-04-17 12:57 50.11544 8.82731 4520 ft 207 kts 249°
2026-04-17 12:58 50.11046 8.80616 4233 ft 208 kts 249°
2026-04-17 12:58 50.10544 8.78490 3935 ft 210 kts 249°
2026-04-17 12:58 50.10041 8.76359 3635 ft 210 kts 249°
2026-04-17 12:58 50.09535 8.74217 3336 ft 211 kts 249°
2026-04-17 12:59 50.09025 8.72065 3035 ft 213 kts 249°
2026-04-17 12:59 50.08512 8.69899 2739 ft 213 kts 249°
2026-04-17 12:59 50.07999 8.67734 2427 ft 214 kts 249°
2026-04-17 12:59 50.07482 8.65554 2126 ft 215 kts 249°
2026-04-17 13:00 50.06964 8.63375 1829 ft 210 kts 249°
2026-04-17 13:00 50.06480 8.61339 1517 ft 193 kts 249°
2026-04-17 13:00 50.06033 8.59461 1265 ft 177 kts 249°
2026-04-17 13:00 50.05631 8.57774 1028 ft 157 kts 250°
2026-04-17 13:01 50.05267 8.56250 812 ft 146 kts 250°
2026-04-17 13:01 50.04920 8.54793 593 ft 142 kts 251°
2026-04-17 13:01 50.04580 8.53356 398 ft 141 kts 250°
2026-04-17 13:01 50.04271 8.52066 347 ft 99 kts 249°
2026-04-17 13:02 50.04129 8.51581 353 ft 35 kts 228°
2026-04-17 13:02 50.04010 8.51426 351 ft 11 kts 216°
2026-04-17 13:02 50.04002 8.51416 348 ft 0 kts 216°
2026-04-17 13:02 50.03995 8.51409 349 ft 8 kts 214°
2026-04-17 13:03 50.03919 8.51380 352 ft 11 kts 147°
2026-04-17 13:03 50.03915 8.51484 352 ft 10 kts 68°
2026-04-17 13:03 50.03936 8.51576 350 ft 9 kts 70°
2026-04-17 13:03 50.03967 8.51706 355 ft 20 kts 69°
2026-04-17 13:04 50.04018 8.51924 356 ft 23 kts 69°
2026-04-17 13:04 50.04077 8.52161 351 ft 24 kts 68°
2026-04-17 13:04 50.04140 8.52416 355 ft 26 kts 69°
2026-04-17 13:04 50.04204 8.52688 349 ft 27 kts 70°
2026-04-17 13:05 50.04272 8.52964 353 ft 25 kts 69°
2026-04-17 13:05 50.04330 8.53203 348 ft 24 kts 69°
2026-04-17 13:05 50.04387 8.53439 354 ft 23 kts 71°
2026-04-17 13:05 50.04410 8.53695 348 ft 24 kts 84°
2026-04-17 13:06 50.04428 8.53967 355 ft 26 kts 85°
2026-04-17 13:06 50.04444 8.54234 348 ft 17 kts 84°
2026-04-17 13:06 50.04453 8.54411 346 ft 17 kts 90°
2026-04-17 13:06 50.04427 8.54599 353 ft 19 kts 117°
2026-04-17 13:07 50.04372 8.54709 350 ft 0 kts 134°
2026-04-17 13:08 50.04347 8.54739 351 ft 8 kts 146°
2026-04-17 13:09 50.04302 8.54776 351 ft 7 kts 155°
2026-04-17 13:09 50.04249 8.54809 352 ft 9 kts 160°
2026-04-17 13:09 50.04193 8.54841 350 ft 8 kts 160°
2026-04-17 13:09 50.04143 8.54869 349 ft 8 kts 160°
2026-04-17 13:10 50.04050 8.54921 348 ft 15 kts 157°
2026-04-17 13:10 50.04026 8.55049 354 ft 13 kts 70°
2026-04-17 13:10 50.04060 8.55187 353 ft 14 kts 69°
2026-04-17 13:10 50.04096 8.55336 348 ft 16 kts 69°
2026-04-17 13:11 50.04137 8.55506 346 ft 18 kts 70°
2026-04-17 13:11 50.04182 8.55699 347 ft 20 kts 69°
2026-04-17 13:11 50.04233 8.55908 351 ft 22 kts 69°
2026-04-17 13:11 50.04288 8.56140 351 ft 24 kts 70°
2026-04-17 13:12 50.04348 8.56390 349 ft 26 kts 70°
2026-04-17 13:12 50.04471 8.56853 352 ft 21 kts 39°
2026-04-17 13:12 50.04591 8.56902 355 ft 16 kts 14°
2026-04-17 13:13 50.04674 8.56929 351 ft 8 kts 345°
2026-04-17 13:13 50.04699 8.56862 351 ft 7 kts 294°
2026-04-17 13:13 50.04702 8.56849 353 ft 0 kts 294°